Content
SEND FEEDBACK

Daily
Averages
Monthly
Summary
France

BORDEAUX, FRANCE


Home > Europe > France
Elevation: 200 feet     Latitude: 44 50N     Longitude: 000 42W

WEATHER
 
SELECT A DAY
Number of Records: 332,296;   Date Range: 7/1/96 - 12/17/14
 
SHARE

PRINT THIS DATA

[ ← Previous Day ]
WEATHER ALMANAC - APRIL 17, 2013
[ Next Day → ]
[ °C ]   °F
Weather ElementAverageHighLow
Temperature66 °F86 °F (4:00 pm)51.8 °F (6:00 am)
Dewpoint50.2 °F55.4 °F (1:30 pm)46.4 °F (5:00 pm)
Humidity60.2 %94 % (6:00 am)27 % (5:00 pm)
Barometer30.10 in30.21 in (12:30 am)30.01 in (3:30 pm)
Wind Speed8.4 mph20.7 mph (5:00 pm)
Weather ElementAverage
Visibility6.2 mi
Wind DirectionSSE (152.2 °)

Weather ElementTotal
Precipitation---
Cooling Degree Days3.9 (Base 65)
Growing Degree Days18.9 (Base 50)
Averaged from 50 records on April 17, 2013
WEATHER CONDITIONS BREAKOUT
WIND DIRECTION BREAKOUT
WEATHER BY HOUR - APRIL 17, 2013
[ °C ]   °F
Local TimeTemperatureDewpointHumidityBarometerVisibilityWind DirectionWind SpeedGust SpeedPrecipitationEventsConditions
12:30 AM59.0 °F50.0 °F72 %30.21 in6.2 miNE (40°)4.6 mph
1:00 AM59.0 °F48.2 °F67 %30.21 in6.2 miNE (40°)4.6 mph
1:30 AM57.2 °F48.2 °F72 %30.18 in6.2 miNE (50°)4.6 mph
2:00 AM57.0 °F49.0 °F66 %30.20 inENE (60°)3.5 mphPartly Cloudy
2:00 AM57.2 °F48.2 °F72 %30.18 in6.2 miENE (60°)3.5 mph
2:30 AM57.2 °F48.2 °F72 %30.18 in6.2 miENE (60°)3.5 mph
3:00 AM57.2 °F48.2 °F72 %30.18 in6.2 miENE (70°)3.5 mph
3:30 AM55.4 °F48.2 °F77 %30.15 in6.2 miEast (80°)2.3 mph
4:00 AM53.6 °F48.2 °F82 %30.15 in6.2 miVariable2.3 mph
4:30 AM53.6 °F48.2 °F82 %30.15 in6.2 miESE (110°)3.5 mph
5:00 AM53.6 °F48.2 °F82 %30.15 in6.2 miEast (90°)3.5 mph
5:30 AM53.6 °F48.2 °F82 %30.15 in6.2 miEast (90°)2.3 mph
6:00 AM51.8 °F50.0 °F94 %30.15 in6.2 miEast (80°)2.3 mph
6:30 AM51.8 °F48.2 °F88 %30.12 in6.2 miEast (90°)3.5 mph
7:00 AM51.8 °F48.2 °F88 %30.12 in6.2 miEast (100°)4.6 mph
7:30 AM51.8 °F48.2 °F88 %30.12 in6.2 miEast (100°)4.6 mph
8:00 AM55.0 °F47.0 °F68 %30.14 inESE (110°)4.6 mphPartly Cloudy
8:00 AM55.4 °F48.2 °F77 %30.12 in6.2 miESE (110°)4.6 mph
8:30 AM57.2 °F48.2 °F72 %30.12 in6.2 miESE (110°)3.5 mph
9:00 AM59.0 °F48.2 °F67 %30.12 in6.2 miESE (110°)5.8 mph
9:30 AM62.6 °F48.2 °F59 %30.12 in6.2 miESE (110°)5.8 mph
10:00 AM64.4 °F48.2 °F56 %30.09 in6.2 miESE (110°)6.9 mph
10:30 AM68.0 °F48.2 °F49 %30.09 in6.2 miESE (120°)9.2 mph
11:00 AM69.8 °F50.0 °F49 %30.09 in6.2 miESE (120°)8.1 mph
11:30 AM71.6 °F50.0 °F46 %30.09 in6.2 miESE (120°)8.1 mph
12:00 PM73.4 °F51.8 °F47 %30.09 in6.2 miESE (110°)9.2 mph
12:30 PM75.2 °F53.6 °F47 %30.06 in6.2 miESE (110°)10.4 mph
1:00 PM77.0 °F53.6 °F44 %30.06 in6.2 miESE (120°)10.4 mph
1:30 PM78.8 °F55.4 °F44 %30.06 in6.2 miESE (110°)10.4 mphMostly Cloudy
2:00 PM80.6 °F55.4 °F42 %30.04 in6.2 miESE (120°)10.4 mphMostly Cloudy
2:30 PM80.6 °F55.4 °F42 %30.04 in6.2 miEast (100°)12.7 mphMostly Cloudy
3:00 PM82.4 °F55.4 °F39 %30.04 in6.2 miESE (110°)11.5 mphMostly Cloudy
3:30 PM82.4 °F55.4 °F39 %30.01 in6.2 miESE (120°)8.1 mphMostly Cloudy
4:00 PM86.0 °F50.0 °F29 %30.01 in6.2 miSouth (190°)12.7 mphMostly Cloudy
4:30 PM86.0 °F50.0 °F29 %30.01 in6.2 miSW (230°)12.7 mphMostly Cloudy
5:00 PM84.2 °F46.4 °F27 %30.01 in6.2 miWSW (250°)20.7 mphMostly Cloudy
5:30 PM84.2 °F48.2 °F29 %30.01 in6.2 miWSW (250°)19.6 mphScattered Clouds
6:00 PM82.4 °F48.2 °F30 %30.01 in6.2 miWest (260°)18.4 mph
6:30 PM80.6 °F48.2 °F32 %30.04 in6.2 miWest (260°)17.3 mph
7:00 PM80.6 °F48.2 °F32 %30.04 in6.2 miWest (260°)15.0 mph
7:30 PM73.4 °F53.6 °F50 %30.04 in6.2 miWNW (290°)16.1 mph
8:00 PM71.0 °F53.0 °F41 %30.06 inWNW (290°)11.5 mphPartly Cloudy
8:00 PM69.8 °F51.8 °F53 %30.06 in6.2 miWNW (290°)11.5 mph
8:30 PM68.0 °F53.6 °F60 %30.06 in6.2 miWest (280°)11.5 mph
9:00 PM64.4 °F53.6 °F68 %30.09 in6.2 miWNW (290°)8.1 mph
9:30 PM62.6 °F51.8 °F68 %30.09 in6.2 miWNW (290°)10.4 mph
10:00 PM59.0 °F51.8 °F77 %30.09 in6.2 miNW (310°)12.7 mph
10:30 PM59.0 °F51.8 °F77 %30.12 in6.2 miWNW (300°)10.4 mph
11:00 PM57.2 °F51.8 °F82 %30.15 in6.2 miWest (270°)5.8 mph
11:30 PM57.2 °F51.8 °F82 %30.18 in6.2 miWest (260°)6.9 mph
Hourly data recorded from LFBD, located miles away from Bordeaux, France







STORIES FROM OUR PARTNERS